Time,TemperatureF,DewpointF,PressureIn,WindDirection,WindDirectionDegrees,WindSpeedMPH,WindSpeedGustMPH,Humidity,HourlyPrecipIn,Conditions,Clouds,dailyrainin,SoftwareType,DateUTC
2013-02-11 00:00:00,28.3,22.6,29.98,WNW,296,12.0,12.0,79,0.00,,---,0.07,VWS V14.01,2013-02-11 06:00:00,
2013-02-11 00:05:00,28.3,22.9,29.99,West,278,12.0,15.0,80,0.00,,---,0.07,VWS V14.01,2013-02-11 06:05:00,
2013-02-11 00:10:00,28.3,22.9,30.00,WNW,288,8.0,11.0,80,0.00,,---,0.00,VWS V14.01,2013-02-11 06:10:00,
2013-02-11 00:15:00,28.2,22.5,30.00,WNW,294,12.0,20.0,79,0.00,,---,0.00,VWS V14.01,2013-02-11 06:15:00,
2013-02-11 00:20:00,28.2,22.8,30.00,WNW,290,9.0,16.0,80,0.00,,---,0.00,VWS V14.01,2013-02-11 06:20:00,
2013-02-11 00:25:00,28.2,22.5,30.01,West,267,18.0,18.0,79,0.00,,---,0.00,VWS V14.01,2013-02-11 06:25:00,
2013-02-11 00:30:00,28.1,22.4,30.01,West,275,15.0,15.0,79,0.00,,---,0.00,VWS V14.01,2013-02-11 06:30:00,
2013-02-11 00:35:00,28.1,22.4,30.01,West,274,6.0,13.0,79,0.00,,---,0.00,VWS V14.01,2013-02-11 06:35:00,
2013-02-11 00:40:00,28.0,22.3,30.02,WSW,256,11.0,12.0,79,0.00,,---,0.00,VWS V14.01,2013-02-11 06:40:00,
2013-02-11 00:45:00,27.9,22.2,30.02,WNW,286,10.0,16.0,79,0.00,,---,0.00,VWS V14.01,2013-02-11 06:45:00,
2013-02-11 00:50:00,27.9,22.5,30.02,West,277,10.0,20.0,80,0.00,,---,0.00,VWS V14.01,2013-02-11 06:50:00,
2013-02-11 00:55:00,28.0,22.6,30.03,WSW,254,9.0,21.0,80,0.00,,---,0.00,VWS V14.01,2013-02-11 06:55:00,
2013-02-11 01:00:00,28.1,22.7,30.03,WNW,290,16.0,16.0,80,0.00,,---,0.00,VWS V14.01,2013-02-11 07:00:00,
2013-02-11 01:05:00,28.2,22.5,30.02,NW,309,13.0,15.0,79,0.00,,---,0.00,VWS V14.01,2013-02-11 07:05:00,
2013-02-11 01:10:00,28.2,22.2,30.05,West,260,15.0,18.0,78,0.00,,---,0.00,VWS V14.01,2013-02-11 07:10:00,
2013-02-11 01:15:00,28.3,22.3,30.05,WNW,290,8.0,24.0,78,0.00,,---,0.00,VWS V14.01,2013-02-11 07:15:00,
2013-02-11 01:20:00,28.4,22.7,30.05,NNW,342,12.0,16.0,79,0.00,,---,0.00,VWS V14.01,2013-02-11 07:20:00,
2013-02-11 01:25:00,28.3,22.9,30.05,WNW,302,13.0,17.0,80,0.00,,---,0.00,VWS V14.01,2013-02-11 07:25:00,
2013-02-11 01:30:00,28.2,22.8,30.06,WNW,296,8.0,11.0,80,0.00,,---,0.00,VWS V14.01,2013-02-11 07:30:00,
2013-02-11 01:35:00,28.0,23.2,30.06,NW,325,10.0,11.0,82,0.00,,---,0.00,VWS V14.01,2013-02-11 07:35:00,
2013-02-11 01:40:00,27.9,23.4,30.06,WNW,298,9.0,10.0,83,0.00,,---,0.00,VWS V14.01,2013-02-11 07:40:00,
2013-02-11 01:45:00,27.8,23.9,30.07,WNW,295,6.0,7.0,85,0.00,,---,0.00,VWS V14.01,2013-02-11 07:45:00,
2013-02-11 01:50:00,27.8,24.2,30.07,West,268,4.0,7.0,86,0.00,,---,0.00,VWS V14.01,2013-02-11 07:50:00,
2013-02-11 01:55:00,28.0,24.4,30.07,WNW,291,14.0,14.0,86,0.00,,---,0.00,VWS V14.01,2013-02-11 07:55:00,
2013-02-11 02:00:00,28.1,24.2,30.08,West,269,9.0,10.0,85,0.00,,---,0.00,VWS V14.01,2013-02-11 08:00:00,
2013-02-11 02:05:00,28.1,24.2,30.08,West,261,3.0,13.0,85,0.00,,---,0.00,VWS V14.01,2013-02-11 08:05:00,
2013-02-11 02:10:00,28.1,24.2,30.07,West,263,6.0,12.0,85,0.00,,---,0.00,VWS V14.01,2013-02-11 08:10:00,
2013-02-11 02:15:00,28.1,23.9,30.08,WNW,300,12.0,18.0,84,0.00,,---,0.00,VWS V14.01,2013-02-11 08:15:00,
2013-02-11 02:20:00,28.1,23.3,30.08,WNW,285,10.0,16.0,82,0.00,,---,0.00,VWS V14.01,2013-02-11 08:20:00,
2013-02-11 02:25:00,28.0,23.2,30.08,WNW,290,6.0,11.0,82,0.00,,---,0.00,VWS V14.01,2013-02-11 08:25:00,
2013-02-11 02:30:00,28.0,23.2,30.09,WNW,286,10.0,12.0,82,0.00,,---,0.00,VWS V14.01,2013-02-11 08:30:00,
2013-02-11 02:35:00,28.1,23.0,30.10,NW,311,13.0,19.0,81,0.00,,---,0.00,VWS V14.01,2013-02-11 08:35:00,
2013-02-11 02:40:00,28.0,22.9,30.10,NW,319,11.0,17.0,81,0.00,,---,0.00,VWS V14.01,2013-02-11 08:40:00,
2013-02-11 02:45:00,27.8,22.4,30.10,WNW,299,9.0,13.0,80,0.00,,---,0.00,VWS V14.01,2013-02-11 08:45:00,
2013-02-11 02:50:00,27.6,22.2,30.10,West,277,14.0,16.0,80,0.00,,---,0.00,VWS V14.01,2013-02-11 08:50:00,
2013-02-11 02:55:00,27.4,22.4,30.11,WNW,287,9.0,13.0,81,0.00,,---,0.00,VWS V14.01,2013-02-11 08:55:00,
2013-02-11 03:00:00,27.4,22.4,30.12,NW,304,8.0,14.0,81,0.00,,---,0.00,VWS V14.01,2013-02-11 09:00:00,
2013-02-11 03:05:00,27.5,22.5,30.12,WSW,240,5.0,13.0,81,0.00,,---,0.00,VWS V14.01,2013-02-11 09:05:00,
2013-02-11 03:10:00,27.5,22.5,30.14,WNW,291,14.0,18.0,81,0.00,,---,0.00,VWS V14.01,2013-02-11 09:10:00,
2013-02-11 03:15:00,27.4,22.0,30.14,WNW,288,12.0,17.0,80,0.00,,---,0.00,VWS V14.01,2013-02-11 09:15:00,
2013-02-11 03:20:00,27.1,21.8,30.14,WNW,286,11.0,20.0,80,0.00,,---,0.00,VWS V14.01,2013-02-11 09:20:00,
2013-02-11 03:25:00,26.9,21.9,30.14,NW,306,10.0,13.0,81,0.00,,---,0.00,VWS V14.01,2013-02-11 09:25:00,
2013-02-11 03:30:00,27.0,22.0,30.14,WSW,246,17.0,17.0,81,0.00,,---,0.00,VWS V14.01,2013-02-11 09:30:00,
2013-02-11 03:35:00,27.0,22.0,30.15,West,269,13.0,19.0,81,0.00,,---,0.00,VWS V14.01,2013-02-11 09:35:00,
2013-02-11 03:40:00,27.0,21.7,30.15,WNW,288,11.0,17.0,80,0.00,,---,0.00,VWS V14.01,2013-02-11 09:40:00,
2013-02-11 03:45:00,27.0,21.7,30.15,NW,322,11.0,15.0,80,0.00,,---,0.00,VWS V14.01,2013-02-11 09:45:00,
2013-02-11 03:50:00,27.0,21.7,30.15,West,274,7.0,16.0,80,0.00,,---,0.00,VWS V14.01,2013-02-11 09:50:00,
2013-02-11 03:55:00,27.0,21.4,30.15,WNW,283,7.0,13.0,79,0.00,,---,0.00,VWS V14.01,2013-02-11 09:55:00,
2013-02-11 04:00:00,27.0,21.4,30.15,NNW,332,12.0,22.0,79,0.00,,---,0.00,VWS V14.01,2013-02-11 10:00:00,
2013-02-11 04:05:00,27.0,21.4,30.15,WNW,289,10.0,15.0,79,0.00,,---,0.00,VWS V14.01,2013-02-11 10:05:00,
2013-02-11 04:10:00,27.0,21.4,30.17,WNW,291,13.0,14.0,79,0.00,,---,0.00,VWS V14.01,2013-02-11 10:10:00,
2013-02-11 04:15:00,26.9,21.3,30.17,WNW,288,9.0,14.0,79,0.00,,---,0.00,VWS V14.01,2013-02-11 10:15:00,
2013-02-11 04:20:00,26.9,21.3,30.17,NNW,331,12.0,14.0,79,0.00,,---,0.00,VWS V14.01,2013-02-11 10:20:00,
2013-02-11 04:25:00,26.8,21.2,30.17,West,281,13.0,16.0,79,0.00,,---,0.00,VWS V14.01,2013-02-11 10:25:00,
2013-02-11 04:30:00,26.7,21.1,30.17,WNW,285,21.0,21.0,79,0.00,,---,0.00,VWS V14.01,2013-02-11 10:30:00,
2013-02-11 04:35:00,26.5,20.9,30.17,West,273,10.0,16.0,79,0.00,,---,0.00,VWS V14.01,2013-02-11 10:35:00,
2013-02-11 04:51:00,26.2,20.9,30.20,WNW,285,10.0,11.0,80,0.00,,---,0.00,VWS V14.01,2013-02-11 10:51:00,
2013-02-11 04:56:00,26.1,21.1,30.20,WNW,299,10.0,20.0,81,0.00,,---,0.00,VWS V14.01,2013-02-11 10:56:00,
2013-02-11 05:01:00,26.0,21.0,30.20,WNW,287,9.0,15.0,81,0.00,,---,0.00,VWS V14.01,2013-02-11 11:01:00,
2013-02-11 05:06:00,26.0,21.0,30.20,West,281,14.0,14.0,81,0.00,,---,0.00,VWS V14.01,2013-02-11 11:06:00,
2013-02-11 05:11:00,26.0,21.0,30.21,NNW,333,13.0,14.0,81,0.00,,---,0.00,VWS V14.01,2013-02-11 11:11:00,
2013-02-11 05:16:00,26.0,21.0,30.21,WNW,292,12.0,12.0,81,0.00,,---,0.00,VWS V14.01,2013-02-11 11:16:00,
2013-02-11 05:21:00,25.9,20.9,30.21,NW,306,12.0,15.0,81,0.00,,---,0.00,VWS V14.01,2013-02-11 11:21:00,
2013-02-11 05:26:00,26.1,21.4,30.21,NW,314,14.0,15.0,82,0.00,,---,0.00,VWS V14.01,2013-02-11 11:26:00,
2013-02-11 05:31:00,26.2,21.2,30.21,NW,326,13.0,20.0,81,0.00,,---,0.00,VWS V14.01,2013-02-11 11:31:00,
2013-02-11 05:36:00,26.2,21.2,30.22,West,279,18.0,18.0,81,0.00,,---,0.00,VWS V14.01,2013-02-11 11:36:00,
2013-02-11 05:41:00,26.2,21.2,30.22,NNW,330,10.0,12.0,81,0.00,,---,0.00,VWS V14.01,2013-02-11 11:41:00,
2013-02-11 05:46:00,26.2,21.2,30.23,West,270,15.0,17.0,81,0.00,,---,0.00,VWS V14.01,2013-02-11 11:46:00,
2013-02-11 05:51:00,26.1,21.1,30.23,WNW,296,11.0,19.0,81,0.00,,---,0.00,VWS V14.01,2013-02-11 11:51:00,
2013-02-11 05:56:00,26.2,21.2,30.24,WNW,301,9.0,14.0,81,0.00,,---,0.00,VWS V14.01,2013-02-11 11:56:00,
2013-02-11 06:01:00,26.1,20.8,30.25,WNW,293,11.0,13.0,80,0.00,,---,0.00,VWS V14.01,2013-02-11 12:01:00,
2013-02-11 06:06:00,26.1,20.8,30.25,NW,307,10.0,16.0,80,0.00,,---,0.00,VWS V14.01,2013-02-11 12:06:00,
2013-02-11 06:11:00,26.2,20.9,30.26,WNW,299,10.0,10.0,80,0.00,,---,0.00,VWS V14.01,2013-02-11 12:11:00,
2013-02-11 06:16:00,26.2,20.9,30.26,WNW,292,7.0,9.0,80,0.00,,---,0.00,VWS V14.01,2013-02-11 12:16:00,
2013-02-11 06:21:00,26.3,21.3,30.27,WNW,285,4.0,8.0,81,0.00,,---,0.00,VWS V14.01,2013-02-11 12:21:00,
2013-02-11 06:26:00,26.3,21.3,30.27,West,260,7.0,15.0,81,0.00,,---,0.00,VWS V14.01,2013-02-11 12:26:00,
2013-02-11 06:31:00,26.4,21.1,30.27,WNW,284,6.0,13.0,80,0.00,,---,0.00,VWS V14.01,2013-02-11 12:31:00,
2013-02-11 06:36:00,26.5,21.5,30.28,NW,313,5.0,8.0,81,0.00,,---,0.00,VWS V14.01,2013-02-11 12:36:00,
2013-02-11 06:41:00,26.5,21.5,30.28,West,273,6.0,11.0,81,0.00,,---,0.00,VWS V14.01,2013-02-11 12:41:00,
2013-02-11 06:46:00,26.5,21.5,30.28,WSW,254,6.0,12.0,81,0.00,,---,0.00,VWS V14.01,2013-02-11 12:46:00,
2013-02-11 06:51:00,26.6,21.3,30.28,WNW,288,2.0,8.0,80,0.00,,---,0.00,VWS V14.01,2013-02-11 12:51:00,
2013-02-11 06:56:00,26.5,20.9,30.28,WNW,286,10.0,13.0,79,0.00,,---,0.00,VWS V14.01,2013-02-11 12:56:00,
2013-02-11 07:01:00,26.5,20.9,30.28,West,279,8.0,20.0,79,0.00,,---,0.00,VWS V14.01,2013-02-11 13:01:00,
2013-02-11 07:06:00,26.4,20.8,30.29,West,275,7.0,10.0,79,0.00,,---,0.00,VWS V14.01,2013-02-11 13:06:00,
2013-02-11 07:11:00,26.4,20.8,30.29,NW,312,9.0,12.0,79,0.00,,---,0.00,VWS V14.01,2013-02-11 13:11:00,
2013-02-11 07:16:00,26.3,20.7,30.29,West,277,10.0,10.0,79,0.00,,---,0.00,VWS V14.01,2013-02-11 13:16:00,
2013-02-11 07:21:00,26.3,20.7,30.30,West,277,8.0,11.0,79,0.00,,---,0.00,VWS V14.01,2013-02-11 13:21:00,
2013-02-11 07:26:00,26.3,20.7,30.30,WNW,286,8.0,12.0,79,0.00,,---,0.00,VWS V14.01,2013-02-11 13:26:00,
2013-02-11 07:31:00,26.3,20.4,30.30,WNW,295,7.0,12.0,78,0.00,,---,0.00,VWS V14.01,2013-02-11 13:31:00,
2013-02-11 07:36:00,26.3,20.7,30.30,NW,315,8.0,11.0,79,0.00,,---,0.00,VWS V14.01,2013-02-11 13:36:00,
2013-02-11 07:41:00,26.3,20.4,30.31,WNW,287,9.0,14.0,78,0.00,,---,0.00,VWS V14.01,2013-02-11 13:41:00,
2013-02-11 07:46:00,26.3,20.4,30.31,West,274,9.0,11.0,78,0.00,,---,0.00,VWS V14.01,2013-02-11 13:46:00,
2013-02-11 07:51:00,26.3,20.4,30.31,WNW,289,5.0,11.0,78,0.00,,---,0.00,VWS V14.01,2013-02-11 13:51:00,
2013-02-11 07:56:00,26.3,20.4,30.32,NNW,329,5.0,10.0,78,0.00,,---,0.00,VWS V14.01,2013-02-11 13:56:00,
2013-02-11 08:01:00,26.4,20.5,30.32,WNW,288,5.0,10.0,78,0.00,,---,0.00,VWS V14.01,2013-02-11 14:01:00,
2013-02-11 08:06:00,26.4,20.5,30.33,West,281,6.0,7.0,78,0.00,,---,0.00,VWS V14.01,2013-02-11 14:06:00,
2013-02-11 08:11:00,26.5,20.6,30.32,NW,314,6.0,13.0,78,0.00,,---,0.00,VWS V14.01,2013-02-11 14:11:00,
2013-02-11 08:16:00,26.5,20.6,30.32,WNW,292,12.0,14.0,78,0.00,,---,0.00,VWS V14.01,2013-02-11 14:16:00,
2013-02-11 08:21:00,26.5,20.3,30.32,WSW,249,7.0,13.0,77,0.00,,---,0.00,VWS V14.01,2013-02-11 14:21:00,
2013-02-11 08:26:00,26.5,20.3,30.33,NW,311,5.0,10.0,77,0.00,,---,0.00,VWS V14.01,2013-02-11 14:26:00,
2013-02-11 08:31:00,26.4,20.5,30.33,West,280,11.0,12.0,78,0.00,,---,0.00,VWS V14.01,2013-02-11 14:31:00,
2013-02-11 08:36:00,26.5,20.6,30.32,WNW,288,10.0,14.0,78,0.00,,---,0.00,VWS V14.01,2013-02-11 14:36:00,
2013-02-11 08:41:00,26.5,20.3,30.33,WNW,292,10.0,16.0,77,0.00,,---,0.00,VWS V14.01,2013-02-11 14:41:00,
2013-02-11 08:46:00,26.6,20.7,30.33,NW,306,11.0,14.0,78,0.00,,---,0.00,VWS V14.01,2013-02-11 14:46:00,
2013-02-11 08:51:00,26.8,20.9,30.33,West,279,9.0,13.0,78,0.00,,---,0.00,VWS V14.01,2013-02-11 14:51:00,
2013-02-11 08:56:00,27.0,21.1,30.33,WNW,293,10.0,15.0,78,0.00,,---,0.00,VWS V14.01,2013-02-11 14:56:00,
2013-02-11 09:01:00,27.1,21.2,30.33,NNW,336,15.0,15.0,78,0.00,,---,0.00,VWS V14.01,2013-02-11 15:01:00,
2013-02-11 09:06:00,27.2,21.0,30.33,WNW,289,5.0,17.0,77,0.00,,---,0.00,VWS V14.01,2013-02-11 15:06:00,
2013-02-11 09:11:00,27.2,21.0,30.33,WNW,287,10.0,18.0,77,0.00,,---,0.00,VWS V14.01,2013-02-11 15:11:00,
2013-02-11 09:16:00,27.2,20.6,30.34,WNW,301,14.0,15.0,76,0.00,,---,0.00,VWS V14.01,2013-02-11 15:16:00,
2013-02-11 09:21:00,27.4,21.1,30.34,West,269,13.0,17.0,77,0.00,,---,0.00,VWS V14.01,2013-02-11 15:21:00,
2013-02-11 09:26:00,27.5,20.9,30.34,NW,309,10.0,18.0,76,0.00,,---,0.00,VWS V14.01,2013-02-11 15:26:00,
2013-02-11 09:31:00,27.6,21.0,30.34,West,280,5.0,14.0,76,0.00,,---,0.00,VWS V14.01,2013-02-11 15:31:00,
2013-02-11 09:36:00,27.7,21.4,30.34,WNW,291,9.0,17.0,77,0.00,,---,0.00,VWS V14.01,2013-02-11 15:36:00,
2013-02-11 09:41:00,27.8,21.2,30.34,NW,325,10.0,13.0,76,0.00,,---,0.00,VWS V14.01,2013-02-11 15:41:00,
2013-02-11 09:46:00,28.1,21.8,30.35,West,281,13.0,14.0,77,0.00,,---,0.00,VWS V14.01,2013-02-11 15:46:00,
2013-02-11 09:51:00,28.4,22.1,30.35,NW,304,7.0,15.0,77,0.00,,---,0.00,VWS V14.01,2013-02-11 15:51:00,
2013-02-11 09:56:00,28.4,21.8,30.35,WNW,285,13.0,14.0,76,0.00,,---,0.00,VWS V14.01,2013-02-11 15:56:00,
2013-02-11 10:01:00,28.1,21.5,30.35,West,280,9.0,13.0,76,0.00,,---,0.00,VWS V14.01,2013-02-11 16:01:00,
2013-02-11 10:06:00,27.7,20.8,30.36,WNW,283,16.0,16.0,75,0.00,,---,0.00,VWS V14.01,2013-02-11 16:06:00,
2013-02-11 10:11:00,27.9,21.6,30.36,NW,315,9.0,14.0,77,0.00,,---,0.00,VWS V14.01,2013-02-11 16:11:00,
2013-02-11 10:16:00,28.1,21.5,30.36,West,278,9.0,14.0,76,0.00,,---,0.00,VWS V14.01,2013-02-11 16:16:00,
2013-02-11 10:21:00,28.4,21.8,30.36,WNW,287,11.0,13.0,76,0.00,,---,0.00,VWS V14.01,2013-02-11 16:21:00,
2013-02-11 10:26:00,28.6,22.0,30.35,WNW,300,12.0,13.0,76,0.00,,---,0.00,VWS V14.01,2013-02-11 16:26:00,
2013-02-11 10:31:00,29.1,22.2,30.36,WNW,297,6.0,12.0,75,0.00,,---,0.00,VWS V14.01,2013-02-11 16:31:00,
2013-02-11 10:36:00,29.2,22.3,30.36,West,271,12.0,12.0,75,0.00,,---,0.00,VWS V14.01,2013-02-11 16:36:00,
2013-02-11 10:41:00,28.9,22.0,30.36,West,267,14.0,15.0,75,0.00,,---,0.00,VWS V14.01,2013-02-11 16:41:00,
2013-02-11 10:46:00,28.8,21.9,30.37,WNW,300,11.0,15.0,75,0.00,,---,0.00,VWS V14.01,2013-02-11 16:46:00,
2013-02-11 10:51:00,28.9,22.0,30.37,WNW,298,9.0,13.0,75,0.00,,---,0.00,VWS V14.01,2013-02-11 16:51:00,
2013-02-11 10:56:00,28.7,21.8,30.37,NNW,333,7.0,9.0,75,0.00,,---,0.00,VWS V14.01,2013-02-11 16:56:00,
2013-02-11 11:01:00,28.8,21.9,30.38,WNW,295,10.0,15.0,75,0.00,,---,0.00,VWS V14.01,2013-02-11 17:01:00,
2013-02-11 11:06:00,28.8,21.9,30.38,West,281,10.0,10.0,75,0.00,,---,0.00,VWS V14.01,2013-02-11 17:06:00,
2013-02-11 11:11:00,28.8,21.9,30.39,WSW,258,5.0,12.0,75,0.00,,---,0.00,VWS V14.01,2013-02-11 17:11:00,
2013-02-11 11:16:00,28.9,21.7,30.39,West,279,6.0,7.0,74,0.00,,---,0.00,VWS V14.01,2013-02-11 17:16:00,
2013-02-11 11:21:00,29.0,21.8,30.40,WNW,292,11.0,13.0,74,0.00,,---,0.00,VWS V14.01,2013-02-11 17:21:00,
2013-02-11 11:26:00,28.9,21.7,30.40,West,275,6.0,9.0,74,0.00,,---,0.00,VWS V14.01,2013-02-11 17:26:00,
2013-02-11 11:31:00,28.9,21.7,30.40,West,278,5.0,10.0,74,0.00,,---,0.00,VWS V14.01,2013-02-11 17:31:00,
2013-02-11 11:36:00,29.0,21.8,30.39,NW,310,11.0,13.0,74,0.00,,---,0.00,VWS V14.01,2013-02-11 17:36:00,
2013-02-11 11:41:00,29.2,22.0,30.40,WNW,294,10.0,14.0,74,0.00,,---,0.00,VWS V14.01,2013-02-11 17:41:00,
2013-02-11 11:46:00,29.4,22.1,30.40,NW,314,16.0,16.0,74,0.00,,---,0.00,VWS V14.01,2013-02-11 17:46:00,
2013-02-11 11:51:00,29.4,22.1,30.40,WNW,287,11.0,11.0,74,0.00,,---,0.00,VWS V14.01,2013-02-11 17:51:00,
2013-02-11 11:56:00,29.6,22.4,30.39,NW,306,12.0,12.0,74,0.00,,---,0.00,VWS V14.01,2013-02-11 17:56:00,
2013-02-11 12:01:00,29.8,22.2,30.38,WNW,299,5.0,16.0,73,0.00,,---,0.00,VWS V14.01,2013-02-11 18:01:00,
2013-02-11 12:06:00,29.7,22.1,30.38,WNW,283,7.0,10.0,73,0.00,,---,0.00,VWS V14.01,2013-02-11 18:06:00,
2013-02-11 12:11:00,29.8,22.2,30.38,WNW,284,7.0,14.0,73,0.00,,---,0.00,VWS V14.01,2013-02-11 18:11:00,
2013-02-11 12:16:00,29.8,22.2,30.38,WNW,282,10.0,11.0,73,0.00,,---,0.00,VWS V14.01,2013-02-11 18:16:00,
2013-02-11 12:21:00,30.0,22.7,30.37,WNW,288,11.0,11.0,74,0.00,,---,0.00,VWS V14.01,2013-02-11 18:21:00,
2013-02-11 12:26:00,30.5,23.2,30.37,WNW,290,7.0,15.0,74,0.00,,---,0.00,VWS V14.01,2013-02-11 18:26:00,
2013-02-11 12:31:00,31.1,23.5,30.36,WNW,287,6.0,13.0,73,0.00,,---,0.00,VWS V14.01,2013-02-11 18:31:00,
2013-02-11 12:36:00,31.4,23.4,30.36,WNW,294,6.0,10.0,72,0.00,,---,0.00,VWS V14.01,2013-02-11 18:36:00,
2013-02-11 12:41:00,31.4,23.4,30.37,NNW,331,4.0,13.0,72,0.00,,---,0.00,VWS V14.01,2013-02-11 18:41:00,
2013-02-11 12:46:00,31.3,23.3,30.37,West,281,9.0,14.0,72,0.00,,---,0.00,VWS V14.01,2013-02-11 18:46:00,
2013-02-11 12:51:00,31.2,22.9,30.37,West,273,6.0,16.0,71,0.00,,---,0.00,VWS V14.01,2013-02-11 18:51:00,
2013-02-11 12:56:00,30.8,22.9,30.37,NW,312,7.0,13.0,72,0.00,,---,0.00,VWS V14.01,2013-02-11 18:56:00,
2013-02-11 13:01:00,30.6,22.7,30.38,WNW,301,11.0,11.0,72,0.00,,---,0.00,VWS V14.01,2013-02-11 19:01:00,
2013-02-11 13:06:00,30.8,23.5,30.38,West,280,9.0,10.0,74,0.00,,---,0.00,VWS V14.01,2013-02-11 19:06:00,
2013-02-11 13:11:00,31.0,23.0,30.38,WNW,293,8.0,10.0,72,0.00,,---,0.00,VWS V14.01,2013-02-11 19:11:00,
2013-02-11 13:16:00,31.1,23.5,30.38,WSW,253,4.0,7.0,73,0.00,,---,0.00,VWS V14.01,2013-02-11 19:16:00,
2013-02-11 13:21:00,31.1,23.1,30.38,WNW,300,5.0,11.0,72,0.00,,---,0.00,VWS V14.01,2013-02-11 19:21:00,
2013-02-11 13:26:00,31.0,23.0,30.38,WNW,288,4.0,11.0,72,0.00,,---,0.00,VWS V14.01,2013-02-11 19:26:00,
2013-02-11 13:31:00,31.0,23.0,30.39,WNW,283,7.0,10.0,72,0.00,,---,0.00,VWS V14.01,2013-02-11 19:31:00,
2013-02-11 13:36:00,30.9,23.0,30.38,West,276,9.0,12.0,72,0.00,,---,0.00,VWS V14.01,2013-02-11 19:36:00,
2013-02-11 13:41:00,31.1,23.1,30.38,NW,311,4.0,7.0,72,0.00,,---,0.00,VWS V14.01,2013-02-11 19:41:00,
2013-02-11 13:46:00,31.4,23.8,30.37,West,265,6.0,11.0,73,0.00,,---,0.00,VWS V14.01,2013-02-11 19:46:00,
2013-02-11 13:51:00,31.3,23.3,30.37,NW,306,9.0,11.0,72,0.00,,---,0.00,VWS V14.01,2013-02-11 19:51:00,
2013-02-11 13:56:00,31.3,23.7,30.37,WNW,285,12.0,12.0,73,0.00,,---,0.00,VWS V14.01,2013-02-11 19:56:00,
2013-02-11 14:01:00,31.2,23.6,30.38,WNW,300,5.0,5.0,73,0.00,,---,0.00,VWS V14.01,2013-02-11 20:01:00,
2013-02-11 14:06:00,31.2,23.2,30.38,WNW,286,10.0,12.0,72,0.00,,---,0.00,VWS V14.01,2013-02-11 20:06:00,
2013-02-11 14:11:00,31.0,23.4,30.38,WNW,296,11.0,12.0,73,0.00,,---,0.00,VWS V14.01,2013-02-11 20:11:00,
2013-02-11 14:16:00,30.8,22.9,30.38,WSW,244,3.0,10.0,72,0.00,,---,0.00,VWS V14.01,2013-02-11 20:16:00,
2013-02-11 14:21:00,30.7,23.1,30.39,WNW,286,5.0,6.0,73,0.00,,---,0.00,VWS V14.01,2013-02-11 20:21:00,
2013-02-11 14:26:00,30.5,22.9,30.39,West,277,1.0,6.0,73,0.00,,---,0.00,VWS V14.01,2013-02-11 20:26:00,
2013-02-11 14:31:00,30.5,22.9,30.39,WNW,288,1.0,6.0,73,0.00,,---,0.00,VWS V14.01,2013-02-11 20:31:00,
2013-02-11 14:36:00,30.5,23.2,30.39,WSW,252,2.0,6.0,74,0.00,,---,0.00,VWS V14.01,2013-02-11 20:36:00,
2013-02-11 14:41:00,30.5,22.9,30.39,West,276,4.0,10.0,73,0.00,,---,0.00,VWS V14.01,2013-02-11 20:41:00,
2013-02-11 14:46:00,30.3,22.7,30.39,West,273,3.0,6.0,73,0.00,,---,0.00,VWS V14.01,2013-02-11 20:46:00,
2013-02-11 14:51:00,30.1,22.8,30.39,West,269,5.0,6.0,74,0.00,,---,0.00,VWS V14.01,2013-02-11 20:51:00,
2013-02-11 14:56:00,30.1,22.8,30.39,WNW,286,5.0,6.0,74,0.00,,---,0.00,VWS V14.01,2013-02-11 20:56:00,
2013-02-11 15:01:00,30.2,22.9,30.39,West,262,4.0,4.0,74,0.00,,---,0.00,VWS V14.01,2013-02-11 21:01:00,
2013-02-11 15:06:00,30.2,22.9,30.40,West,275,2.0,5.0,74,0.00,,---,0.00,VWS V14.01,2013-02-11 21:06:00,
2013-02-11 15:11:00,30.2,22.9,30.40,West,274,3.0,4.0,74,0.00,,---,0.00,VWS V14.01,2013-02-11 21:11:00,
2013-02-11 15:16:00,30.1,22.8,30.40,WNW,285,6.0,7.0,74,0.00,,---,0.00,VWS V14.01,2013-02-11 21:16:00,
2013-02-11 15:21:00,29.9,22.6,30.41,WNW,288,7.0,7.0,74,0.00,,---,0.00,VWS V14.01,2013-02-11 21:21:00,
2013-02-11 15:26:00,29.9,22.6,30.41,West,263,5.0,9.0,74,0.00,,---,0.00,VWS V14.01,2013-02-11 21:26:00,
2013-02-11 15:31:00,29.9,22.6,30.40,WNW,288,2.0,6.0,74,0.00,,---,0.00,VWS V14.01,2013-02-11 21:31:00,
2013-02-11 15:36:00,29.9,23.0,30.40,West,281,4.0,7.0,75,0.00,,---,0.00,VWS V14.01,2013-02-11 21:36:00,
2013-02-11 15:41:00,30.0,23.0,30.40,NW,304,9.0,10.0,75,0.00,,---,0.00,VWS V14.01,2013-02-11 21:41:00,
2013-02-11 15:46:00,29.9,22.6,30.40,NNW,335,5.0,7.0,74,0.00,,---,0.00,VWS V14.01,2013-02-11 21:46:00,
2013-02-11 15:51:00,29.9,22.6,30.40,WNW,284,5.0,5.0,74,0.00,,---,0.00,VWS V14.01,2013-02-11 21:51:00,
2013-02-11 15:56:00,30.0,23.0,30.40,NW,316,5.0,7.0,75,0.00,,---,0.00,VWS V14.01,2013-02-11 21:56:00,
2013-02-11 16:01:00,30.1,23.1,30.40,West,281,7.0,7.0,75,0.00,,---,0.00,VWS V14.01,2013-02-11 22:01:00,
2013-02-11 16:06:00,30.2,23.2,30.40,WNW,284,5.0,8.0,75,0.00,,---,0.00,VWS V14.01,2013-02-11 22:06:00,
2013-02-11 16:11:00,30.1,22.8,30.40,WNW,290,3.0,9.0,74,0.00,,---,0.00,VWS V14.01,2013-02-11 22:11:00,
2013-02-11 16:16:00,30.0,23.0,30.40,West,274,6.0,6.0,75,0.00,,---,0.00,VWS V14.01,2013-02-11 22:16:00,
2013-02-11 16:21:00,29.9,23.0,30.40,WNW,284,9.0,9.0,75,0.00,,---,0.00,VWS V14.01,2013-02-11 22:21:00,
2013-02-11 16:26:00,29.9,23.0,30.40,NW,317,8.0,10.0,75,0.00,,---,0.00,VWS V14.01,2013-02-11 22:26:00,
2013-02-11 16:31:00,29.8,22.9,30.40,NNW,331,6.0,11.0,75,0.00,,---,0.00,VWS V14.01,2013-02-11 22:31:00,
2013-02-11 16:36:00,29.6,22.7,30.40,WNW,293,9.0,12.0,75,0.00,,---,0.00,VWS V14.01,2013-02-11 22:36:00,
2013-02-11 16:40:00,29.4,22.1,30.41,WNW,288,5.0,6.0,74,0.00,,---,0.00,VWS V14.01,2013-02-11 22:40:00,
2013-02-11 16:45:00,29.3,22.4,30.41,WNW,290,3.0,4.0,75,0.00,,---,0.00,VWS V14.01,2013-02-11 22:45:00,
2013-02-11 16:50:00,29.2,22.3,30.41,WNW,284,7.0,11.0,75,0.00,,---,0.00,VWS V14.01,2013-02-11 22:50:00,
2013-02-11 16:55:00,29.0,22.1,30.41,NW,306,10.0,10.0,75,0.00,,---,0.00,VWS V14.01,2013-02-11 22:55:00,
2013-02-11 17:01:00,28.9,22.0,30.41,West,265,3.0,4.0,75,0.00,,---,0.00,VWS V14.01,2013-02-11 23:01:00,
2013-02-11 17:06:00,28.8,22.2,30.41,WNW,288,2.0,2.0,76,0.00,,---,0.00,VWS V14.01,2013-02-11 23:06:00,
2013-02-11 17:11:00,28.8,22.2,30.41,WNW,298,2.0,4.0,76,0.00,,---,0.00,VWS V14.01,2013-02-11 23:11:00,
2013-02-11 17:15:00,28.7,22.1,30.41,WNW,300,3.0,6.0,76,0.00,,---,0.00,VWS V14.01,2013-02-11 23:15:00,
2013-02-11 17:20:00,28.6,22.0,30.41,WNW,294,7.0,7.0,76,0.00,,---,0.00,VWS V14.01,2013-02-11 23:20:00,
2013-02-11 17:25:00,28.5,21.9,30.41,WNW,303,4.0,9.0,76,0.00,,---,0.00,VWS V14.01,2013-02-11 23:25:00,
2013-02-11 17:30:00,28.4,21.8,30.42,West,276,4.0,4.0,76,0.00,,---,0.00,VWS V14.01,2013-02-11 23:30:00,
2013-02-11 17:35:00,28.4,22.1,30.41,NW,310,5.0,9.0,77,0.00,,---,0.00,VWS V14.01,2013-02-11 23:35:00,
2013-02-11 17:40:00,28.4,22.1,30.41,West,278,2.0,5.0,77,0.00,,---,0.00,VWS V14.01,2013-02-11 23:40:00,
2013-02-11 17:45:00,28.3,22.3,30.41,WNW,289,4.0,6.0,78,0.00,,---,0.00,VWS V14.01,2013-02-11 23:45:00,
2013-02-11 17:50:00,28.3,22.0,30.42,West,281,6.0,7.0,77,0.00,,---,0.00,VWS V14.01,2013-02-11 23:50:00,
2013-02-11 17:55:00,28.2,21.9,30.42,WNW,284,4.0,5.0,77,0.00,,---,0.00,VWS V14.01,2013-02-11 23:55:00,
2013-02-11 18:00:00,28.1,21.5,30.41,NNW,339,5.0,9.0,76,0.00,,---,0.00,VWS V14.01,2013-02-12 00:00:00,
2013-02-11 18:05:00,28.1,21.8,30.42,WNW,302,7.0,10.0,77,0.00,,---,0.00,VWS V14.01,2013-02-12 00:05:00,
2013-02-11 18:10:00,28.0,21.7,30.42,NW,305,5.0,11.0,77,0.00,,---,0.00,VWS V14.01,2013-02-12 00:10:00,
2013-02-11 18:15:00,27.9,21.6,30.42,WNW,294,6.0,6.0,77,0.00,,---,0.00,VWS V14.01,2013-02-12 00:15:00,
2013-02-11 18:20:00,27.9,21.6,30.42,NW,312,3.0,6.0,77,0.00,,---,0.00,VWS V14.01,2013-02-12 00:20:00,
2013-02-11 18:25:00,27.9,21.9,30.42,WNW,291,4.0,9.0,78,0.00,,---,0.00,VWS V14.01,2013-02-12 00:25:00,
2013-02-11 18:30:00,27.8,21.9,30.42,WNW,296,4.0,7.0,78,0.00,,---,0.00,VWS V14.01,2013-02-12 00:30:00,
2013-02-11 18:35:00,27.8,21.9,30.42,WNW,286,4.0,12.0,78,0.00,,---,0.00,VWS V14.01,2013-02-12 00:35:00,
2013-02-11 18:40:00,27.8,21.9,30.42,WNW,289,5.0,9.0,78,0.00,,---,0.00,VWS V14.01,2013-02-12 00:40:00,
2013-02-11 18:45:00,27.6,21.6,30.42,WNW,287,4.0,10.0,78,0.00,,---,0.00,VWS V14.01,2013-02-12 00:45:00,
2013-02-11 18:50:00,27.6,21.6,30.42,NW,308,5.0,11.0,78,0.00,,---,0.00,VWS V14.01,2013-02-12 00:50:00,
2013-02-11 18:55:00,27.6,21.6,30.43,WNW,300,6.0,7.0,78,0.00,,---,0.00,VWS V14.01,2013-02-12 00:55:00,
2013-02-11 19:00:00,27.5,21.2,30.43,NW,317,3.0,5.0,77,0.00,,---,0.00,VWS V14.01,2013-02-12 01:00:00,
2013-02-11 19:05:00,27.5,21.2,30.43,NNW,327,3.0,10.0,77,0.00,,---,0.00,VWS V14.01,2013-02-12 01:05:00,
2013-02-11 19:10:00,27.5,21.2,30.43,WNW,287,3.0,6.0,77,0.00,,---,0.00,VWS V14.01,2013-02-12 01:10:00,
2013-02-11 19:15:00,27.5,21.2,30.43,WNW,291,4.0,4.0,77,0.00,,---,0.00,VWS V14.01,2013-02-12 01:15:00,
2013-02-11 19:20:00,27.5,21.2,30.43,WNW,287,3.0,7.0,77,0.00,,---,0.00,VWS V14.01,2013-02-12 01:20:00,
2013-02-11 19:25:00,27.5,21.2,30.43,WNW,288,2.0,4.0,77,0.00,,---,0.00,VWS V14.01,2013-02-12 01:25:00,
2013-02-11 19:30:00,27.5,21.2,30.43,West,281,3.0,5.0,77,0.00,,---,0.00,VWS V14.01,2013-02-12 01:30:00,
2013-02-11 19:35:00,27.4,21.1,30.44,WNW,289,2.0,5.0,77,0.00,,---,0.00,VWS V14.01,2013-02-12 01:35:00,
2013-02-11 19:40:00,27.4,21.1,30.43,WNW,292,4.0,6.0,77,0.00,,---,0.00,VWS V14.01,2013-02-12 01:40:00,
2013-02-11 19:45:00,27.4,21.5,30.44,NW,325,5.0,6.0,78,0.00,,---,0.00,VWS V14.01,2013-02-12 01:45:00,
2013-02-11 19:50:00,27.3,21.1,30.44,NW,306,5.0,6.0,77,0.00,,---,0.00,VWS V14.01,2013-02-12 01:50:00,
2013-02-11 19:55:00,27.1,20.5,30.44,NW,310,3.0,8.0,76,0.00,,---,0.00,VWS V14.01,2013-02-12 01:55:00,
2013-02-11 20:00:00,27.0,20.8,30.45,WNW,292,4.0,5.0,77,0.00,,---,0.00,VWS V14.01,2013-02-12 02:00:00,
2013-02-11 20:05:00,27.0,20.8,30.44,WNW,290,2.0,2.0,77,0.00,,---,0.00,VWS V14.01,2013-02-12 02:05:00,
2013-02-11 20:10:00,27.0,20.8,30.43,West,279,2.0,3.0,77,0.00,,---,0.00,VWS V14.01,2013-02-12 02:10:00,
2013-02-11 20:15:00,27.0,20.8,30.43,WNW,290,2.0,4.0,77,0.00,,---,0.00,VWS V14.01,2013-02-12 02:15:00,
2013-02-11 20:20:00,26.9,20.7,30.43,WSW,245,3.0,4.0,77,0.00,,---,0.00,VWS V14.01,2013-02-12 02:20:00,
2013-02-11 20:25:00,26.8,20.6,30.43,WNW,284,4.0,4.0,77,0.00,,---,0.00,VWS V14.01,2013-02-12 02:25:00,
2013-02-11 20:30:00,26.7,20.5,30.43,West,279,4.0,4.0,77,0.00,,---,0.00,VWS V14.01,2013-02-12 02:30:00,
2013-02-11 20:35:00,26.6,20.4,30.43,WNW,288,2.0,2.0,77,0.00,,---,0.00,VWS V14.01,2013-02-12 02:35:00,
2013-02-11 20:40:00,26.4,20.5,30.43,West,276,1.0,1.0,78,0.00,,---,0.00,VWS V14.01,2013-02-12 02:40:00,
2013-02-11 20:45:00,26.3,20.4,30.44,West,264,0.0,0.0,78,0.00,,---,0.00,VWS V14.01,2013-02-12 02:45:00,
2013-02-11 20:50:00,26.2,20.6,30.44,West,264,1.0,2.0,79,0.00,,---,0.00,VWS V14.01,2013-02-12 02:50:00,
2013-02-11 20:55:00,26.1,20.5,30.44,West,277,1.0,2.0,79,0.00,,---,0.00,VWS V14.01,2013-02-12 02:55:00,
2013-02-11 21:00:00,26.0,20.4,30.44,West,277,0.0,2.0,79,0.00,,---,0.00,VWS V14.01,2013-02-12 03:00:00,
2013-02-11 21:05:00,25.8,20.2,30.43,West,277,0.0,0.0,79,0.00,,---,0.00,VWS V14.01,2013-02-12 03:05:00,
2013-02-11 21:10:00,25.5,19.9,30.43,West,277,1.0,2.0,79,0.00,,---,0.00,VWS V14.01,2013-02-12 03:10:00,
2013-02-11 21:15:00,25.2,19.6,30.43,West,277,1.0,1.0,79,0.00,,---,0.00,VWS V14.01,2013-02-12 03:15:00,
2013-02-11 21:20:00,25.0,19.7,30.44,West,277,0.0,0.0,80,0.00,,---,0.00,VWS V14.01,2013-02-12 03:20:00,
2013-02-11 21:25:00,24.7,19.4,30.44,West,277,0.0,1.0,80,0.00,,---,0.00,VWS V14.01,2013-02-12 03:25:00,
2013-02-11 21:30:00,24.4,19.1,30.44,West,277,0.0,0.0,80,0.00,,---,0.00,VWS V14.01,2013-02-12 03:30:00,
2013-02-11 21:35:00,24.1,19.1,30.44,West,277,1.0,1.0,81,0.00,,---,0.00,VWS V14.01,2013-02-12 03:35:00,
2013-02-11 21:40:00,23.8,18.8,30.44,West,277,0.0,0.0,81,0.00,,---,0.00,VWS V14.01,2013-02-12 03:40:00,
2013-02-11 21:45:00,23.6,18.6,30.44,West,277,0.0,0.0,81,0.00,,---,0.00,VWS V14.01,2013-02-12 03:45:00,
2013-02-11 21:50:00,23.4,18.4,30.44,West,277,0.0,0.0,81,0.00,,---,0.00,VWS V14.01,2013-02-12 03:50:00,
2013-02-11 21:55:00,23.3,18.6,30.44,West,277,0.0,0.0,82,0.00,,---,0.00,VWS V14.01,2013-02-12 03:55:00,
2013-02-11 22:00:00,23.1,18.4,30.44,West,277,0.0,0.0,82,0.00,,---,0.00,VWS V14.01,2013-02-12 04:00:00,
2013-02-11 22:05:00,22.9,18.2,30.43,West,277,1.0,1.0,82,0.00,,---,0.00,VWS V14.01,2013-02-12 04:05:00,
2013-02-11 22:10:00,22.7,18.0,30.43,West,277,0.0,0.0,82,0.00,,---,0.00,VWS V14.01,2013-02-12 04:10:00,
2013-02-11 22:15:00,22.5,17.9,30.44,West,277,0.0,0.0,82,0.00,,---,0.00,VWS V14.01,2013-02-12 04:15:00,
2013-02-11 22:20:00,22.4,17.8,30.45,West,277,0.0,0.0,82,0.00,,---,0.00,VWS V14.01,2013-02-12 04:20:00,
2013-02-11 22:25:00,22.1,17.7,30.44,West,277,0.0,2.0,83,0.00,,---,0.00,VWS V14.01,2013-02-12 04:25:00,
2013-02-11 22:30:00,22.1,17.7,30.44,West,277,0.0,0.0,83,0.00,,---,0.00,VWS V14.01,2013-02-12 04:30:00,
2013-02-11 22:35:00,22.1,17.7,30.45,West,277,0.0,0.0,83,0.00,,---,0.00,VWS V14.01,2013-02-12 04:35:00,
2013-02-11 22:40:00,22.0,17.6,30.44,West,277,0.0,0.0,83,0.00,,---,0.00,VWS V14.01,2013-02-12 04:40:00,
2013-02-11 22:45:00,21.9,17.5,30.44,West,277,0.0,0.0,83,0.00,,---,0.00,VWS V14.01,2013-02-12 04:45:00,
2013-02-11 22:50:00,21.8,17.7,30.45,West,277,0.0,0.0,84,0.00,,---,0.00,VWS V14.01,2013-02-12 04:50:00,
2013-02-11 22:55:00,21.7,17.6,30.45,West,277,0.0,0.0,84,0.00,,---,0.00,VWS V14.01,2013-02-12 04:55:00,
2013-02-11 23:00:00,21.7,17.6,30.45,SW,233,3.0,3.0,84,0.00,,---,0.00,VWS V14.01,2013-02-12 05:00:00,
2013-02-11 23:05:00,21.2,16.9,30.45,SW,229,1.0,2.0,83,0.00,,---,0.00,VWS V14.01,2013-02-12 05:05:00,
2013-02-11 23:10:00,20.7,16.6,30.46,SW,215,2.0,2.0,84,0.00,,---,0.00,VWS V14.01,2013-02-12 05:10:00,
2013-02-11 23:15:00,20.4,16.4,30.46,SW,215,3.0,3.0,84,0.00,,---,0.00,VWS V14.01,2013-02-12 05:15:00,
2013-02-11 23:20:00,20.1,16.0,30.46,SW,215,2.0,3.0,84,0.00,,---,0.00,VWS V14.01,2013-02-12 05:20:00,
2013-02-11 23:25:00,19.8,15.8,30.46,SW,215,0.0,0.0,84,0.00,,---,0.00,VWS V14.01,2013-02-12 05:25:00,
2013-02-11 23:30:00,19.7,15.9,30.46,SW,214,4.0,4.0,85,0.00,,---,0.00,VWS V14.01,2013-02-12 05:30:00,
2013-02-11 23:35:00,19.7,15.9,30.47,SW,214,4.0,4.0,85,0.00,,---,0.00,VWS V14.01,2013-02-12 05:35:00,
2013-02-11 23:40:00,19.5,15.7,30.46,SW,214,2.0,2.0,85,0.00,,---,0.00,VWS V14.01,2013-02-12 05:40:00,
2013-02-11 23:45:00,19.3,15.5,30.47,SW,214,0.0,0.0,85,0.00,,---,0.00,VWS V14.01,2013-02-12 05:45:00,
2013-02-11 23:50:00,19.1,15.3,30.47,SW,214,4.0,4.0,85,0.00,,---,0.00,VWS V14.01,2013-02-12 05:50:00,
2013-02-11 23:55:00,19.0,15.5,30.47,SW,214,3.0,4.0,86,0.00,,---,0.00,VWS V14.01,2013-02-12 05:55:00,